Location: Memphis International Airport Police
(35.0443°N, 89.9815°W)
Time: 02:29:24
(UTC+00:00)

Cosmos 2298 Rocket - Pass Details

Date: 26 September 2023
Orbit: 774 x 783 km, 74.0° (Epoch: 30 November)

Event Time Altitude Azimuth Distance (km) Brightness Sun altitude
Rises 10:42:35 0° 197° (SSW) 3,240 7.0 -14.7°
Reaches altitude 10° 10:44:57 10° 197° (SSW) 2,315 6.2 -14.3°
Maximum altitude 10:50:13 86° 287° (WNW) 781 4.0 -13.2°
Drops below altitude 10° 10:55:31 10° 16° (NNE) 2,326 6.8 -12.1°
Sets 10:57:54 0° 17° (NNE) 3,256 7.6 -11.6°
